�������l�o���
Date,Time,MP-1(��Sv/h),MP-2(��Sv/h),MP-3(��Sv/h),MP-4(��Sv/h),MP-5(��Sv/h),MP-6(��Sv/h),MP-7(��Sv/h),MP-8(��Sv/h),����,����(m/s),���J
2019/08/19,00:00,0.782,1.112,0.771,1.377,1.015,0.434,0.761,0.717,�k�k��,3.6,��
2019/08/19,00:10,0.783,1.110,0.771,1.380,1.013,0.435,0.761,0.717,�k,3.8,��
2019/08/19,00:20,0.784,1.114,0.771,1.378,1.013,0.434,0.759,0.716,�k,4.0,��
2019/08/19,00:30,0.784,1.113,0.770,1.377,1.014,0.434,0.760,0.717,�k�k��,3.9,��
2019/08/19,00:40,0.782,1.112,0.770,1.377,1.013,0.434,0.761,0.718,�k,4.4,��
2019/08/19,00:50,0.784,1.113,0.770,1.375,1.015,0.436,0.760,0.717,�k�k��,5.1,��
2019/08/19,01:00,0.782,1.111,0.771,1.378,1.013,0.434,0.762,0.715,�k�k��,4.9,��
2019/08/19,01:10,0.782,1.111,0.773,1.379,1.017,0.433,0.761,0.717,�k�k��,4.4,��
2019/08/19,01:20,0.783,1.110,0.771,1.378,1.015,0.434,0.762,0.715,�k�k��,5.3,��
2019/08/19,01:30,0.783,1.111,0.771,1.374,1.013,0.433,0.762,0.717,�k�k��,4.9,��
2019/08/19,01:40,0.782,1.111,0.769,1.378,1.015,0.434,0.762,0.718,�k�k��,5.0,��
2019/08/19,01:50,0.781,1.113,0.768,1.377,1.013,0.434,0.761,0.717,�k�k��,4.4,��
2019/08/19,02:00,0.780,1.109,0.770,1.378,1.014,0.434,0.762,0.716,�k�k��,4.2,��
2019/08/19,02:10,0.782,1.113,0.769,1.375,1.013,0.433,0.763,0.716,�k�k��,4.0,��
2019/08/19,02:20,0.780,1.111,0.770,1.377,1.013,0.433,0.760,0.716,�k�k��,4.4,��
2019/08/19,02:30,0.781,1.112,0.770,1.377,1.013,0.434,0.760,0.715,�k�k��,4.7,��
2019/08/19,02:40,0.779,1.109,0.768,1.375,1.014,0.433,0.761,0.716,�k�k��,4.6,��
2019/08/19,02:50,0.781,1.111,0.771,1.375,1.014,0.434,0.761,0.716,�k�k��,4.2,��
2019/08/19,03:00,0.781,1.108,0.770,1.376,1.013,0.433,0.761,0.715,�k�k��,4.3,�L
2019/08/19,03:10,0.780,1.111,0.771,1.374,1.013,0.433,0.760,0.716,�k�k��,4.5,�L
2019/08/19,03:20,0.781,1.109,0.770,1.378,1.016,0.434,0.759,0.716,�k�k��,4.5,�L
2019/08/19,03:30,0.781,1.110,0.770,1.375,1.013,0.433,0.761,0.716,�k�k��,3.8,��
2019/08/19,03:40,0.781,1.109,0.770,1.376,1.012,0.434,0.762,0.715,�k�k��,3.4,��
2019/08/19,03:50,0.781,1.108,0.769,1.373,1.014,0.432,0.762,0.716,�k,3.1,��
2019/08/19,04:00,0.778,1.110,0.771,1.377,1.012,0.433,0.760,0.716,�k�k��,3.0,�L
2019/08/19,04:10,0.780,1.108,0.769,1.374,1.015,0.432,0.759,0.717,�k,3.0,��
2019/08/19,04:20,0.780,1.111,0.770,1.375,1.015,0.433,0.760,0.716,�k�k��,2.3,��
2019/08/19,04:30,0.781,1.111,0.770,1.374,1.015,0.433,0.762,0.716,�k�k��,2.6,��
2019/08/19,04:40,0.781,1.109,0.770,1.376,1.014,0.430,0.761,0.715,�k,2.3,��
2019/08/19,04:50,0.783,1.109,0.768,1.375,1.013,0.434,0.761,0.717,�k�k��,2.2,��
2019/08/19,05:00,0.781,1.108,0.769,1.376,1.012,0.432,0.762,0.716,�k,2.3,��
2019/08/19,05:10,0.780,1.111,0.770,1.374,1.015,0.432,0.760,0.715,�k�k��,2.3,��
2019/08/19,05:20,0.783,1.108,0.770,1.375,1.013,0.434,0.763,0.714,�k,2.5,��
2019/08/19,05:30,0.781,1.110,0.769,1.376,1.012,0.431,0.762,0.715,�k,2.9,��
2019/08/19,05:40,0.783,1.108,0.770,1.376,1.013,0.432,0.762,0.715,�k�k��,2.5,��
2019/08/19,05:50,0.783,1.108,0.767,1.376,1.014,0.434,0.762,0.715,�k�k��,2.6,��
2019/08/19,06:00,0.783,1.109,0.770,1.374,1.014,0.432,0.762,0.716,�k�k��,2.3,��
2019/08/19,06:10,0.780,1.110,0.770,1.375,1.013,0.433,0.762,0.716,�k,2.9,��
2019/08/19,06:20,0.780,1.108,0.770,1.373,1.014,0.432,0.760,0.715,�k,2.6,��
2019/08/19,06:30,0.781,1.111,0.767,1.377,1.012,0.432,0.760,0.715,�k,2.9,��
2019/08/19,06:40,0.782,1.109,0.770,1.377,1.011,0.431,0.762,0.717,�k,2.3,��
2019/08/19,06:50,0.782,1.106,0.769,1.375,1.012,0.431,0.762,0.716,�k,2.0,��
2019/08/19,07:00,0.780,1.108,0.769,1.373,1.013,0.431,0.760,0.716,�k�k��,2.6,��
2019/08/19,07:10,0.780,1.108,0.767,1.376,1.012,0.430,0.762,0.715,�k��,2.0,��
2019/08/19,07:20,0.781,1.107,0.768,1.376,1.010,0.430,0.762,0.715,�k�k��,2.6,��
2019/08/19,07:30,0.780,1.106,0.768,1.374,1.011,0.431,0.761,0.714,�k�k��,2.5,��
2019/08/19,07:40,0.781,1.108,0.765,1.374,1.010,0.430,0.760,0.718,�k,2.6,��
2019/08/19,07:50,0.782,1.105,0.767,1.375,1.011,0.432,0.762,0.716,�k�k��,2.3,��
2019/08/19,08:00,0.783,1.109,0.768,1.375,1.013,0.431,0.762,0.715,�k�k��,2.5,��
2019/08/19,08:10,0.784,1.109,0.769,1.375,1.013,0.432,0.762,0.716,�k�k��,2.3,��
2019/08/19,08:20,0.781,1.105,0.767,1.376,1.012,0.432,0.761,0.717,�k�k��,2.5,��
2019/08/19,08:30,0.782,1.103,0.770,1.375,1.014,0.432,0.760,0.716,���k��,1.9,��
2019/08/19,08:40,0.783,1.104,0.769,1.374,1.013,0.431,0.761,0.716,�k��,2.5,��
2019/08/19,08:50,0.782,1.105,0.765,1.376,1.014,0.434,0.762,0.715,��,2.2,��
2019/08/19,09:00,0.783,1.106,0.765,1.377,1.014,0.433,0.762,0.716,���k��,2.5,��
2019/08/19,09:10,0.783,1.102,0.766,1.373,1.011,0.432,0.763,0.714,�k��,2.6,��
2019/08/19,09:20,0.782,1.105,0.766,1.374,1.014,0.432,0.762,0.715,�k�k��,2.9,��
2019/08/19,09:30,0.779,1.105,0.766,1.376,1.011,0.432,0.761,0.714,�k�k��,2.0,��
2019/08/19,09:40,0.781,1.105,0.764,1.374,1.011,0.432,0.761,0.715,�k��,2.6,��
2019/08/19,09:50,0.780,1.103,0.765,1.377,1.013,0.432,0.761,0.714,�k��,3.1,��
2019/08/19,10:00,0.781,1.100,0.764,1.376,1.014,0.432,0.759,0.715,���k��,3.2,��
2019/08/19,10:10,0.779,1.107,0.767,1.376,1.013,0.432,0.759,0.715,�k�k��,3.6,��
2019/08/19,10:20,0.781,1.102,0.766,1.377,1.013,0.431,0.760,0.715,���k��,3.2,��
2019/08/19,10:30,0.782,1.103,0.767,1.378,1.012,0.432,0.761,0.714,�k��,3.5,��
2019/08/19,10:40,0.780,1.107,0.766,1.378,1.014,0.432,0.760,0.715,�k��,3.1,��
2019/08/19,10:50,0.782,1.107,0.767,1.376,1.013,0.433,0.760,0.715,�k��,3.6,��
2019/08/19,11:00,0.781,1.104,0.768,1.377,1.015,0.431,0.761,0.715,�k��,2.9,��
2019/08/19,11:10,0.781,1.109,0.765,1.375,1.012,0.432,0.761,0.715,���k��,3.5,��
2019/08/19,11:20,0.782,1.108,0.764,1.378,1.015,0.431,0.761,0.714,���k��,3.4,��
2019/08/19,11:30,0.783,1.107,0.768,1.375,1.015,0.432,0.760,0.714,�k��,2.6,��
2019/08/19,11:40,0.783,1.109,0.765,1.374,1.016,0.431,0.760,0.716,���k��,3.8,��
2019/08/19,11:50,0.783,1.109,0.768,1.375,1.018,0.432,0.761,0.714,���k��,3.7,��
2019/08/19,12:00,0.783,1.109,0.767,1.374,1.016,0.433,0.762,0.716,���k��,2.9,��
2019/08/19,12:10,0.782,1.111,0.768,1.374,1.016,0.432,0.761,0.715,���k��,3.4,��
2019/08/19,12:20,0.781,1.111,0.769,1.375,1.018,0.431,0.761,0.716,���k��,3.0,��
2019/08/19,12:30,0.780,1.112,0.767,1.378,1.018,0.431,0.762,0.715,���k��,4.3,��
2019/08/19,12:40,0.783,1.110,0.767,1.375,1.016,0.432,0.761,0.715,���k��,3.4,��
2019/08/19,12:50,0.781,1.112,0.771,1.376,1.017,0.431,0.761,0.717,���k��,3.5,��
2019/08/19,13:00,0.782,1.111,0.769,1.377,1.018,0.433,0.761,0.715,���k��,3.4,��
2019/08/19,13:10,0.782,1.111,0.769,1.375,1.019,0.430,0.762,0.716,���k��,3.6,��
2019/08/19,13:20,0.782,1.107,0.768,1.374,1.018,0.432,0.762,0.715,���k��,3.5,��
2019/08/19,13:30,0.784,1.107,0.768,1.377,1.019,0.431,0.761,0.716,���k��,2.9,��
2019/08/19,13:40,0.781,1.109,0.767,1.378,1.018,0.431,0.761,0.716,���k��,2.8,��
2019/08/19,13:50,0.781,1.108,0.765,1.379,1.018,0.432,0.761,0.715,���k��,3.0,��
2019/08/19,14:00,0.783,1.111,0.769,1.381,1.017,0.431,0.761,0.716,��,3.7,��
2019/08/19,14:10,0.781,1.108,0.766,1.381,1.016,0.431,0.763,0.716,��,2.6,��
2019/08/19,14:20,0.782,1.109,0.770,1.378,1.018,0.432,0.762,0.715,��,3.2,��
2019/08/19,14:30,0.781,1.110,0.768,1.378,1.016,0.432,0.762,0.717,��,2.9,��
2019/08/19,14:40,0.784,1.109,0.768,1.377,1.017,0.432,0.760,0.719,���쓌,3.0,��
2019/08/19,14:50,0.782,1.110,0.769,1.379,1.017,0.431,0.762,0.717,���쓌,3.2,��
2019/08/19,15:00,0.781,1.109,0.770,1.378,1.019,0.431,0.762,0.716,���쓌,3.6,��
2019/08/19,15:10,0.782,1.111,0.768,1.378,1.015,0.431,0.762,0.717,���쓌,3.5,��
2019/08/19,15:20,0.783,1.111,0.767,1.376,1.018,0.431,0.762,0.716,��,3.3,��
2019/08/19,15:30,0.783,1.109,0.769,1.376,1.017,0.432,0.763,0.717,��,3.3,��
2019/08/19,15:40,0.782,1.108,0.769,1.378,1.018,0.434,0.763,0.718,���쓌,3.5,��
2019/08/19,15:50,0.784,1.110,0.770,1.379,1.016,0.431,0.763,0.716,���쓌,3.2,��
2019/08/19,16:00,0.782,1.112,0.770,1.379,1.017,0.433,0.763,0.714,�쓌,3.1,��
2019/08/19,16:10,0.783,1.113,0.769,1.377,1.017,0.432,0.763,0.715,�쓌,3.7,��
2019/08/19,16:20,0.782,1.113,0.768,1.380,1.018,0.432,0.763,0.717,���쓌,3.4,��
2019/08/19,16:30,0.783,1.111,0.767,1.377,1.017,0.432,0.763,0.715,�쓌,3.0,��
2019/08/19,16:40,0.781,1.115,0.766,1.377,1.017,0.431,0.761,0.715,�쓌,3.3,��
2019/08/19,16:50,0.782,1.113,0.768,1.377,1.018,0.432,0.762,0.715,�쓌,3.0,��
2019/08/19,17:00,0.782,1.113,0.766,1.379,1.017,0.432,0.763,0.716,���쓌,2.3,��
2019/08/19,17:10,0.784,1.113,0.768,1.378,1.015,0.431,0.762,0.717,���쓌,2.5,��
2019/08/19,17:20,0.784,1.114,0.768,1.378,1.016,0.430,0.761,0.716,���쓌,2.3,��
2019/08/19,17:30,0.782,1.114,0.768,1.376,1.017,0.433,0.761,0.715,���쓌,2.3,��
2019/08/19,17:40,0.783,1.112,0.769,1.377,1.019,0.432,0.762,0.714,���쓌,2.2,��
2019/08/19,17:50,0.785,1.111,0.771,1.377,1.017,0.432,0.762,0.716,���쓌,1.7,��
2019/08/19,18:00,0.782,1.110,0.768,1.378,1.016,0.432,0.762,0.714,��,2.0,��
2019/08/19,18:10,0.782,1.112,0.768,1.377,1.019,0.433,0.761,0.715,���쓌,2.3,��
2019/08/19,18:20,0.781,1.111,0.769,1.377,1.019,0.434,0.760,0.715,���쓌,2.6,��
2019/08/19,18:30,0.783,1.116,0.771,1.380,1.020,0.433,0.761,0.714,���쓌,2.3,��
2019/08/19,18:40,0.782,1.116,0.771,1.377,1.019,0.433,0.761,0.715,���쓌,2.3,��
2019/08/19,18:50,0.783,1.113,0.770,1.378,1.017,0.434,0.761,0.715,���쓌,2.6,��
2019/08/19,19:00,0.782,1.116,0.771,1.377,1.018,0.434,0.762,0.717,�쓌,2.3,��
2019/08/19,19:10,0.783,1.116,0.770,1.378,1.018,0.434,0.763,0.715,���쓌,2.3,��
2019/08/19,19:20,0.782,1.111,0.769,1.379,1.016,0.432,0.761,0.715,���쓌,2.0,��
2019/08/19,19:30,0.782,1.114,0.769,1.382,1.019,0.433,0.761,0.715,���쓌,1.2,��
2019/08/19,19:40,0.783,1.115,0.769,1.378,1.018,0.432,0.760,0.716,���쓌,1.4,��
2019/08/19,19:50,0.782,1.112,0.769,1.378,1.021,0.432,0.760,0.716,���쓌,1.1,��
2019/08/19,20:00,0.784,1.112,0.770,1.377,1.019,0.432,0.762,0.716,���쓌,1.2,��
2019/08/19,20:10,0.785,1.114,0.768,1.381,1.020,0.432,0.762,0.716,���쓌,1.5,��
2019/08/19,20:20,0.785,1.115,0.770,1.380,1.019,0.432,0.760,0.716,���쓌,1.5,��
2019/08/19,20:30,0.785,1.113,0.770,1.377,1.018,0.434,0.762,0.717,���쓌,1.2,��
2019/08/19,20:40,0.786,1.113,0.771,1.379,1.016,0.433,0.762,0.715,���쓌,1.2,��
2019/08/19,20:50,0.784,1.111,0.770,1.378,1.019,0.434,0.762,0.716,��,0.6,��
2019/08/19,21:00,0.783,1.110,0.771,1.379,1.018,0.434,0.763,0.717,��,1.5,��
2019/08/19,21:10,0.784,1.112,0.768,1.380,1.016,0.432,0.762,0.716,��,1.7,��
2019/08/19,21:20,0.782,1.114,0.770,1.380,1.017,0.434,0.759,0.718,���쓌,1.5,��
2019/08/19,21:30,0.784,1.114,0.768,1.380,1.018,0.434,0.761,0.717,���쓌,2.3,��
2019/08/19,21:40,0.783,1.114,0.771,1.379,1.019,0.432,0.761,0.717,���쓌,2.3,��
2019/08/19,21:50,0.780,1.111,0.769,1.379,1.016,0.433,0.763,0.715,��,2.0,�L
2019/08/19,22:00,0.782,1.112,0.767,1.379,1.017,0.430,0.762,0.717,��,1.5,��
2019/08/19,22:10,0.783,1.112,0.769,1.378,1.018,0.434,0.762,0.715,��,1.9,��
2019/08/19,22:20,0.782,1.111,0.769,1.378,1.016,0.433,0.761,0.717,��,2.9,��
2019/08/19,22:30,0.780,1.111,0.770,1.379,1.019,0.434,0.762,0.717,���쓌,2.5,��
2019/08/19,22:40,0.781,1.111,0.769,1.378,1.016,0.433,0.760,0.715,���쓌,3.0,��
2019/08/19,22:50,0.782,1.113,0.771,1.379,1.019,0.434,0.761,0.717,���쓌,2.9,��
2019/08/19,23:00,0.783,1.114,0.770,1.378,1.018,0.432,0.761,0.717,���쓌,3.3,��
2019/08/19,23:10,0.783,1.113,0.771,1.378,1.018,0.431,0.762,0.714,���쓌,3.5,��
2019/08/19,23:20,0.781,1.112,0.769,1.380,1.016,0.433,0.763,0.718,���쓌,3.9,��
2019/08/19,23:30,0.782,1.113,0.770,1.379,1.016,0.432,0.761,0.716,���쓌,3.8,��
2019/08/19,23:40,0.782,1.114,0.770,1.380,1.019,0.433,0.761,0.716,���쓌,4.4,��
2019/08/19,23:50,0.781,1.113,0.769,1.379,1.016,0.433,0.761,0.717,���쓌,3.1,��
